Hourly Weather Aarwangen

Today, 19 October, Monday

Time Temperature Precipitation Wind Pressure Humidity
00:00 +6°C° 0 mm 0 mps 723 mmHg 81%
01:00 +5°C° 0 mm 0 mps 723 mmHg 82%
02:00 +4°C° 0 mm 0 mps 723 mmHg 84%
03:00 +4°C° 0 mm 0 mps 723 mmHg 87%
04:00 +3°C° 0 mm 0 mps 723 mmHg 89%
05:00 +3°C° 0 mm 0 mps 723 mmHg 90%
06:00 +3°C° 0 mm 0 mps 723 mmHg 90%
07:00 +3°C° 0 mm 0 mps 722 mmHg 92%
08:00 +5°C° 0 mm 0 mps 723 mmHg 84%
09:00 +7°C° 0 mm 0 mps 723 mmHg 77%
10:00 +9°C° 0 mm 0 mps 723 mmHg 70%
11:00 +11°C° 0 mm 1 mps 723 mmHg 65%
12:00 +13°C° 0 mm 1 mps 722 mmHg 61%
13:00 +14°C° 0 mm 1 mps 722 mmHg 57%
14:00 +14°C° 0 mm 1 mps 722 mmHg 58%
15:00 +14°C° 0 mm 1 mps 721 mmHg 60%
16:00 +13°C° 0 mm 1 mps 721 mmHg 62%
17:00 +11°C° 0 mm 1 mps 721 mmHg 69%
18:00 +9°C° 0 mm 1 mps 721 mmHg 76%
19:00 +7°C° 0 mm 1 mps 721 mmHg 84%
20:00 +7°C° 0 mm 1 mps 721 mmHg 84%
21:00 +7°C° 0 mm 1 mps 721 mmHg 84%
22:00 +7°C° 0 mm 1 mps 721 mmHg 84%
23:00 +7°C° 0 mm 1 mps 721 mmHg 84%

Tomorrow, 20 October, Tuesday

Time Temperature Precipitation Wind Pressure Humidity
00:00 +6°C° 0 mm 1 mps 721 mmHg 83%
01:00 +6°C° 0 mm 1 mps 721 mmHg 83%
02:00 +6°C° 0 mm 1 mps 720 mmHg 83%
03:00 +6°C° 0 mm 1 mps 720 mmHg 83%
04:00 +5°C° 0 mm 1 mps 720 mmHg 83%
05:00 +5°C° 0 mm 1 mps 720 mmHg 82%
06:00 +5°C° 0 mm 1 mps 720 mmHg 80%
07:00 +6°C° 0 mm 1 mps 720 mmHg 79%
08:00 +8°C° 0 mm 1 mps 720 mmHg 72%
09:00 +10°C° 0 mm 1 mps 720 mmHg 66%
10:00 +12°C° 0 mm 1 mps 720 mmHg 60%
11:00 +14°C° 0 mm 1 mps 720 mmHg 56%
12:00 +16°C° 0 mm 1 mps 720 mmHg 52%
13:00 +18°C° 0 mm 1 mps 720 mmHg 47%
14:00 +18°C° 0 mm 1 mps 720 mmHg 53%
15:00 +16°C° 0 mm 1 mps 720 mmHg 59%
16:00 +15°C° 0 mm 1 mps 719 mmHg 65%
17:00 +13°C° 0 mm 1 mps 719 mmHg 68%
18:00 +12°C° 0 mm 1 mps 719 mmHg 72%
19:00 +10°C° 0 mm 1 mps 719 mmHg 75%
20:00 +10°C° 0 mm 1 mps 719 mmHg 74%
21:00 +9°C° 0 mm 1 mps 719 mmHg 73%
22:00 +9°C° 0 mm 1 mps 719 mmHg 72%
23:00 +9°C° 0 mm 1 mps 719 mmHg 73%

Day after tomorrow, 21 October, Wednesday

Time Temperature Precipitation Wind Pressure Humidity
00:00 +9°C° 0 mm 1 mps 718 mmHg 73%
01:00 +9°C° 0 mm 1 mps 718 mmHg 74%
02:00 +8°C° 0 mm 1 mps 718 mmHg 74%
03:00 +8°C° 0 mm 1 mps 717 mmHg 74%
04:00 +8°C° 0 mm 1 mps 717 mmHg 75%
05:00 +8°C° 0 mm 1 mps 717 mmHg 76%
06:00 +8°C° 0 mm 1 mps 717 mmHg 77%
07:00 +7°C° 0 mm 1 mps 717 mmHg 78%
08:00 +10°C° 0 mm 1 mps 717 mmHg 72%
09:00 +12°C° 0 mm 1 mps 717 mmHg 66%
10:00 +14°C° 0 mm 1 mps 718 mmHg 60%
11:00 +16°C° 0 mm 1 mps 718 mmHg 57%
12:00 +18°C° 0 mm 1 mps 719 mmHg 54%
13:00 +20°C° 0 mm 1 mps 719 mmHg 51%
14:00 +20°C° 0 mm 1 mps 719 mmHg 56%
15:00 +19°C° 0 mm 1 mps 719 mmHg 61%
16:00 +17°C° 0 mm 0 mps 719 mmHg 66%
17:00 +16°C° 0 mm 1 mps 719 mmHg 69%
18:00 +15°C° 0 mm 1 mps 719 mmHg 73%
19:00 +13°C° 0 mm 1 mps 720 mmHg 77%
20:00 +13°C° 0 mm 1 mps 720 mmHg 75%
21:00 +13°C° 0 mm 1 mps 720 mmHg 74%
22:00 +14°C° 0 mm 1 mps 721 mmHg 72%
23:00 +13°C° 0 mm 1 mps 721 mmHg 74%

22 October, Thursday

Time Temperature Precipitation Wind Pressure Humidity
00:00 +12°C° 0 mm 1 mps 721 mmHg 77%
01:00 +12°C° 0 mm 1 mps 721 mmHg 79%
02:00 +12°C° 0 mm 1 mps 721 mmHg 79%
03:00 +10°C° 0 mm 0 mps 721 mmHg 80%
04:00 +10°C° 0 mm 0 mps 720 mmHg 81%
05:00 +11°C° 0 mm 1 mps 720 mmHg 80%
06:00 +11°C° 0 mm 1 mps 720 mmHg 80%
07:00 +11°C° 0 mm 1 mps 720 mmHg 80%
08:00 +12°C° 0 mm 1 mps 721 mmHg 75%
09:00 +14°C° 0 mm 1 mps 721 mmHg 71%
10:00 +15°C° 0 mm 1 mps 721 mmHg 66%
11:00 +16°C° 0 mm 1 mps 721 mmHg 65%
12:00 +18°C° 0 mm 1 mps 721 mmHg 63%
13:00 +18°C° 0 mm 1 mps 721 mmHg 61%
14:00 +18°C° 0 mm 1 mps 721 mmHg 65%
15:00 +16°C° 0 mm 1 mps 720 mmHg 69%
16:00 +15°C° 0 mm 0 mps 720 mmHg 73%
17:00 +14°C° 0 mm 0 mps 720 mmHg 75%
18:00 +14°C° 0 mm 1 mps 720 mmHg 77%
19:00 +13°C° 0 mm 1 mps 720 mmHg 79%
20:00 +13°C° 0 mm 1 mps 720 mmHg 78%
21:00 +14°C° 0 mm 1 mps 720 mmHg 77%
22:00 +14°C° 0 mm 1 mps 720 mmHg 76%
23:00 +13°C° 0.2 mm 1 mps 720 mmHg 79%

23 October, Friday

Time Temperature Precipitation Wind Pressure Humidity
00:00 +13°C° 0.2 mm 1 mps 720 mmHg 82%
01:00 +13°C° 0.2 mm 1 mps 720 mmHg 86%
02:00 +13°C° 0.4 mm 1 mps 720 mmHg 88%
03:00 +12°C° 0.4 mm 0 mps 720 mmHg 90%
04:00 +11°C° 0.4 mm 0 mps 719 mmHg 92%
05:00 +11°C° 0.2 mm 0 mps 719 mmHg 93%
06:00 +11°C° 0.2 mm 0 mps 719 mmHg 93%
07:00 +11°C° 0.2 mm 0 mps 719 mmHg 93%
08:00 +11°C° 0.4 mm 0 mps 719 mmHg 93%
09:00 +12°C° 0.4 mm 0 mps 719 mmHg 93%
10:00 +12°C° 0.4 mm 0 mps 718 mmHg 93%
11:00 +13°C° 0.7 mm 1 mps 718 mmHg 93%
12:00 +13°C° 0.7 mm 1 mps 718 mmHg 94%
13:00 +13°C° 0.7 mm 1 mps 718 mmHg 94%
14:00 +13°C° 0.9 mm 1 mps 718 mmHg 95%
15:00 +13°C° 0.9 mm 1 mps 718 mmHg 96%
16:00 +13°C° 0.9 mm 1 mps 718 mmHg 97%
17:00 +13°C° 0.8 mm 1 mps 718 mmHg 97%
18:00 +13°C° 0.8 mm 1 mps 719 mmHg 97%
19:00 +13°C° 0.8 mm 1 mps 719 mmHg 98%
20:00 +13°C° 0.2 mm 1 mps 719 mmHg 97%
21:00 +13°C° 0.2 mm 1 mps 720 mmHg 96%
22:00 +12°C° 0.2 mm 2 mps 720 mmHg 96%
23:00 +12°C° 0 mm 1 mps 720 mmHg 95%

24 October, Saturday

Time Temperature Precipitation Wind Pressure Humidity
00:00 +12°C° 0 mm 1 mps 720 mmHg 95%
01:00 +10°C° 0 mm 0 mps 720 mmHg 95%
02:00 +10°C° 0 mm 0 mps 720 mmHg 95%
03:00 +10°C° 0 mm 0 mps 720 mmHg 95%
04:00 +10°C° 0 mm 0 mps 720 mmHg 95%
05:00 +10°C° 0 mm 0 mps 720 mmHg 95%
06:00 +10°C° 0 mm 0 mps 721 mmHg 95%
07:00 +10°C° 0 mm 0 mps 721 mmHg 95%
08:00 +11°C° 0 mm 0 mps 721 mmHg 92%
09:00 +12°C° 0 mm 0 mps 721 mmHg 90%
10:00 +13°C° 0 mm 0 mps 721 mmHg 87%
11:00 +15°C° 0 mm 1 mps 721 mmHg 83%
12:00 +16°C° 0 mm 1 mps 721 mmHg 79%
13:00 +16°C° 0 mm 1 mps 721 mmHg 75%
14:00 +16°C° 0.1 mm 1 mps 721 mmHg 77%
15:00 +16°C° 0.1 mm 1 mps 720 mmHg 78%
16:00 +15°C° 0.1 mm 1 mps 720 mmHg 80%
17:00 +14°C° 0 mm 1 mps 720 mmHg 85%
18:00 +12°C° 0 mm 1 mps 720 mmHg 89%
19:00 +10°C° 0 mm 0 mps 720 mmHg 94%
20:00 +10°C° 0 mm 0 mps 721 mmHg 94%
21:00 +10°C° 0 mm 0 mps 721 mmHg 94%
22:00 +10°C° 0 mm 0 mps 721 mmHg 94%
23:00 +9°C° 0 mm 0 mps 721 mmHg 95%

25 October, Sunday

Time Temperature Precipitation Wind Pressure Humidity
00:00 +9°C° 0 mm 0 mps 720 mmHg 95%
01:00 +9°C° 0 mm 0 mps 720 mmHg 96%
02:00 +8°C° 0 mm 0 mps 720 mmHg 96%
03:00 +8°C° 0 mm 0 mps 719 mmHg 97%
04:00 +8°C° 0 mm 0 mps 719 mmHg 97%
05:00 +7°C° 0 mm 0 mps 719 mmHg 97%
06:00 +7°C° 0 mm 0 mps 719 mmHg 97%
07:00 +7°C° 0 mm 0 mps 719 mmHg 96%
08:00 +9°C° 0 mm 1 mps 718 mmHg 93%
09:00 +10°C° 0 mm 1 mps 718 mmHg 91%
10:00 +11°C° 0 mm 1 mps 718 mmHg 88%
11:00 +12°C° 0 mm 1 mps 717 mmHg 85%
12:00 +13°C° 0 mm 1 mps 717 mmHg 82%
13:00 +13°C° 0 mm 1 mps 717 mmHg 79%
14:00 +13°C° 0 mm 1 mps 716 mmHg 80%
15:00 +13°C° 0 mm 1 mps 716 mmHg 80%
16:00 +13°C° 0 mm 1 mps 715 mmHg 80%
17:00 +12°C° 0 mm 1 mps 715 mmHg 85%
18:00 +10°C° 0 mm 1 mps 715 mmHg 90%
19:00 +9°C° 0 mm 1 mps 715 mmHg 95%
20:00 +9°C° 0 mm 1 mps 715 mmHg 94%
21:00 +9°C° 0 mm 1 mps 715 mmHg 94%
22:00 +8°C° 0 mm 1 mps 715 mmHg 94%
23:00 +8°C° 0 mm 1 mps 715 mmHg 93%
Show more